Regional Weather Roundup
Issued by NWS

Home | Current Version | Previous Version | Graphics & Text | Print | Product List | Glossary On
Versions: 1 2 3 4 5 6 7 8 9 10 11 12 13 14 15 16 17 18 19 20 21 22 23 24 25 26 27 28 29
000
ASUS45 KGTF 041110
RWRMT
MONTANA HOURLY WEATHER ROUNDUP
NATIONAL WEATHER SERVICE GREAT FALLS MT
500 AM MDT MON MAY 04 2015

NOTE: "FAIR" INDICATES FEW OR NO CLOUDS BELOW 12000 FEET WITH NO
SIGNIFICANT WEATHER AND/OR OBSTRUCTIONS TO VISIBILITY.

MTZ001>007-043-041200-
WEST OF THE DIVIDE

CITY           SKY/WX    TMP DP  RH WIND       PRES   REMARKS
KALISPELL      SUNNY     33  27  78 NW3       29.92R
MISSOULA       CLEAR     35  23  61 CALM      29.95R
BUTTE          CLEAR     38  28  67 CALM      29.98S
DEER LODGE       N/A     34  25  69 CALM      29.99F
EUREKA           N/A     30  25  80 CALM      29.97R
HAMILTON         N/A     37  25  60 SE6       29.93S
LIBBY            N/A     30  27  86 CALM      29.95S
$$

MTZ008-052>055-041200-
SOUTHWEST MONTANA

CITY           SKY/WX    TMP DP  RH WIND       PRES   REMARKS
BOZEMAN        CLEAR     33  29  85 SE3       29.97S
DILLON         MOCLDY    41  29  62 S8        29.98R
$$

MTZ009-010-012-014-046-048-049-054-041200-
EAST SLOPES AND CENTRAL MONTANA

CITY           SKY/WX    TMP DP  RH WIND       PRES   REMARKS
CUT BANK       CLEAR     31  23  72 CALM      29.95F
GREAT FALLS    CLEAR     36  28  73 SW9       29.94F WCI  29
MALMSTROM AFB  CLEAR     38  32  81 E1        29.95S
HELENA         PTCLDY    43  27  53 SE3       29.96S
$$

MTZ011-013-016-021-045-047-050-051-041200-
NORTH CENTRAL MONTANA

CITY           SKY/WX    TMP DP  RH WIND       PRES   REMARKS
HAVRE          CLEAR     39  28  64 NE10      29.96F
LEWISTOWN      CLEAR     40  31  70 SE3       29.98S
CHINOOK          N/A     39  28  65 E13       30.00F WCI  32
FORT BENTON      N/A     45  30  57 CALM      29.96S
$$

MTZ017>020-022>042-056>058-061-062-041200-
EASTERN PLAINS

CITY           SKY/WX    TMP DP  RH WIND       PRES   REMARKS
BAKER          MOCLDY    37  29  72 SE10      30.11S WCI  30
BILLINGS       PTCLDY    47  33  58 N3        29.99S
GLASGOW        CLEAR     38  24  57 E12       30.07S WCI  30
JORDAN           N/A     36  27  69 CALM      30.05S
LIVINGSTON     CLEAR     36  31  82 CALM      30.01S
MILES CITY     PTCLDY    47  29  49 E8        30.05S
SIDNEY         CLEAR     32  25  74 CALM      30.13R
WOLF POINT     CLEAR     33  24  69 NE6       30.10S WCI  28
BIG TIMBER       N/A     43  34  70 SW3       30.02S
FORSYTH          N/A     45  32  61 E5        30.03R
PLENTYWOOD       N/A     39  21  48 CALM      30.12S
POPLAR           N/A     36  25  64 N7        30.11S WCI  30
$$

REGIONAL REPORTS...DAKOTAS

CITY           SKY/WX    TMP DP  RH WIND       PRES   REMARKS
WILLISTON      FLURRIES  30  23  75 CALM      30.13R
MINOT          CLEAR     36  25  64 SW8       30.14R WCI  30
DICKINSON      CLOUDY    38  24  57 E8        30.13R
BEACH          FAIR      36  27  69 SE6       30.13S WCI  31
CROSBY         FAIR      28  28 100 CALM      30.14R
WATFORD CITY   FAIR      32  23  69 E5        30.12S
BISMARCK       CLOUDY    32  27  81 CALM      30.18R
GRAND FORKS    PTCLDY    32  27  81 NW6       30.14R WCI  26
FARGO          FAIR      39  26  59 CALM      30.14R
BUFFALO SD       N/A     44  31  60 SE12      30.06R
RAPID CITY     CLOUDY    46  41  82 W6        30.15R
$$

REGIONAL REPORTS...WYOMING/IDAHO/WASHINGTON

CITY           SKY/WX    TMP DP  RH WIND       PRES   REMARKS
GILLETTE       CLOUDY    48  41  76 SE12      30.07R
SHERIDAN       CLOUDY    50  43  77 SE16G25   29.99S
BUFFALO WY     CLOUDY    48  42  80 SE13      30.06S
CODY           CLEAR     43  37  81 N5        30.01S
YELLOWSTONE LA   N/A     27  25  92 CALM      30.12S
IDAHO FALLS    CLEAR     41  38  89 N7        29.96S
SALMON           N/A     39  34  81 CALM      29.95R
BOISE          CLEAR     53  31  42 S8        29.85R
SPOKANE        CLEAR     45  32  60 E3        29.87S
$$

REGIONAL REPORTS...ALBERTA

CITY           SKY/WX    TMP DP  RH WIND       PRES   REMARKS
EDMONTON       CLOUDY    37  34  87 E6        30.00F
CALGARY        PTCLDY    36  27  69 S3        29.96S
LETHBRIDGE     CLEAR     30  25  80 NE3       29.95F
MEDICINE HAT   CLEAR     41  28  60 NE10      29.98F
$$

REGIONAL REPORTS...SASKATCHEWAN

CITY           SKY/WX    TMP DP  RH WIND       PRES   REMARKS
SWIFT CURRENT  CLEAR     34  28  80 SE8       30.08S WCI  27
REGINA         PTCLDY    32  30  93 SE7       30.13S WCI  26
SASKATOON      CLEAR     32  30  93 SW5       30.12S
$$



USA.gov is the U.S. government's official web portal to all federal, state and local government web resources and services.